Location: Unspecified
(0.0000°N, 0.0000°E)
Time: 07:12:31
(UTC+00:00)

LEMUR 2 GREENBERG - Pass Details

Date: 17 January 2026
Orbit: 478 x 492 km, 97.4° (Epoch: 10 February)

Event Time Altitude Azimuth Distance (km) Brightness Sun altitude
Rises 05:05:41 0° 157° (SSE) 2,580 ? -15.0°
Reaches altitude 10° 05:07:50 10° 150° (SSE) 1,696 ? -14.5°
Maximum altitude 05:11:17 40° 79° (E) 735 ? -13.7°
Drops below altitude 10° 05:14:43 10° 8° (N) 1,687 ? -12.9°
Sets 05:16:52 0° 1° (N) 2,565 ? -12.4°
